Regional Weather Roundup
Issued by NWS State College, PA

Home | Current Version | Previous Version | Text Only | Print | Product List | Glossary On
Versions: 1 2 3 4 5 6 7 8 9 10 11 12 13 14 15 16 17 18 19 20 21 22 23 24 25 26 27 28 29 30 31 32 33 34 35 36 37 38 39 40 41 42 43 44 45 46 47 48 49 50
000
ASUS41 KCTP 230203
RWRCTP

REGIONAL WEATHER ROUNDUP
NATIONAL WEATHER SERVICE STATE COLLEGE PA
1000 PM EDT FRI AUG 22 2014

Note: "fair" indicates few or no clouds below 12,000 feet with no
significant weather and/or obstructions to visibility.

* = STATION THAT DOES NOT REPORT PRECIPITATION /E.G. RAIN...SNOW...ETC/
    THUNDER OR FOG.

PAZ002>004-007>009-013>016-020>023-029>032-230300-
WESTERN PENNSYLVANIA

CITY           SKY/WX    TMP DP  RH WIND       PRES   REMARKS
ERIE           CLEAR     71  64  78 CALM      29.99S
MEADVILLE      CLEAR     69  65  86 NE5       30.02R
FRANKLIN*      CLEAR     70  64  83 N7        30.03S
NEW CASTLE     NOT AVBL
BEAVER COUNTY  NOT AVBL
BUTLER*        PTCLDY    72  66  83 CALM      30.02R
PITTSBURGH INT CLOUDY    72  70  93 W5        29.98R
PITTSBURGH     CLOUDY    74  71  91 SE3       29.99R FOG
INDIANA*       CLOUDY    72  70  94 E3        30.05R
LATROBE        MOCLDY    73  72  94 S7        30.01R
WASHINGTON CO* CLOUDY    70  68  94 CALM      30.00R VSB 3/4
$$

PAZ004>006-010>012-017>019-024>028-033>037-041-042-045-046-049>053-230300-
CENTRAL PENNSYLVANIA

CITY           SKY/WX    TMP DP  RH WIND       PRES   REMARKS
BRADFORD       PTCLDY    68  64  87 N5        30.04S
DUBOIS         PTCLDY    69  68  96 CALM      30.02S FOG
CLEARFIELD     FOG       68  68 100 CALM      30.03R VSB 1/4
JOHNSTOWN      PTCLDY    67  65  93 S3        30.05R FOG
ALTOONA        MOCLDY    69  68  96 CALM      30.04R FOG
STATE COLLEGE  PTCLDY    69  66  91 CALM      30.02R
WILLIAMSPORT   CLOUDY    72  66  81 E8        29.99R
SELINSGROVE    LGT RAIN  73  67  81 CALM      30.00S
FT INDIANTOWN  CLOUDY    72  70  93 E6        30.02R
CAPITAL CITY   CLOUDY    73  66  78 SE12      30.00R
HARRISBURG     LGT RAIN  74  68  81 S7        30.00R
YORK           PTCLDY    70  67  90 SE5       30.01R
$$

PAZ038>040-043-044-047-048-054-055-060>062-067>071-230300-
EASTERN PENNSYLVANIA

CITY           SKY/WX    TMP DP  RH WIND       PRES   REMARKS
SCRANTON       CLOUDY    69  62  78 SE8       30.03S
MOUNT POCONO   LGT RAIN  62  61  96 E14G20    30.09S FOG
ALLENTOWN      CLOUDY    70  57  63 E10       30.04S
QUAKERTOWN*    MOCLDY    68  63  83 MISG      30.06R
READING        CLOUDY    73  64  73 SE7       30.01S
LANCASTER      CLOUDY    72  65  78 SE9       30.01F
COATESVILLE    CLOUDY    70  70 100 SE5       30.05R
POTTSTOWN      CLOUDY    71  63  75 CALM      30.05R
BLUE BELL      PTCLDY    70  61  73 E5        30.03S
DOYLESTOWN     CLOUDY    68  59  73 CALM      30.03S
WILLOW GROVE   NOT AVBL
NORTH PHILA    CLOUDY    71  60  68 E10       30.05S
PHILADELPHIA   MOCLDY    71  62  73 E10       30.04R
$$



USA.gov is the U.S. government's official web portal to all federal, state and local government web resources and services.